Weather History for Grand Rapids, MI

Change the Weather History Date:

Friday, November 11, 2011

  Actual Average Record
Temperature  
Mean Temperature 38 °F 42 °F  
Max Temperature 43 °F 50 °F 73 °F (1909)
Min Temperature 33 °F 35 °F 18 °F (1987)
Degree Days  
Heating Degree Days 27 23  
Month to date heating degree days 204 232  
Since 1 July heating degree days 746 824  
Cooling Degree Days 0 0  
Month to date cooling degree days 0 0  
Year to date cooling degree days 894 699  
Moisture  
Dew Point 30 °F    
Average Humidity 77    
Maximum Humidity 96    
Minimum Humidity 57    
Precipitation  
Precipitation T in 0.12 in 1.19 in (1911)
Month to date precipitation 1.37 1.31  
Year to date precipitation 41.37 33.57  
Snow  
Snow T in 0.20 in 5.80 in (1995)
Month to date snowfall 0.7 1.4  
Since 1 July snowfall 0.7 1.9  
Since 1 September snowfall 0.7 1.9  
Snow Depth 0.00 in    
Sea Level Pressure  
Sea Level Pressure 29.91 in    
Wind  
Wind Speed 8 mph (SW)    
Max Wind Speed 21 mph    
Max Gust Speed 25 mph    
Visibility 10 miles    
Events      
T = Trace of Precipitation, MM = Missing Value Source: NWS Daily Summary

Daily Weather History Graph

Daily Weather History Graph

Search for Another Location

Airport:

Trip Planner

Search our weather history database for the weather conditions in past years. The results will help you decide how hot, cold, wet, or windy it might be!

Date:

Astronomy

Nov. 11, 2011 Rise Set
Actual Time 7:28 AM EST 5:22 PM EST
Civil Twilight 6:58 AM EST 5:53 PM EST
Nautical Twilight 6:24 AM EST 6:27 PM EST
Astronomical Twilight 5:51 AM EST 7:00 PM EST
Moon 5:49 PM EST (11/11) 8:18 AM EST (11/11)
Length of Visible Light 10h 54m
Length of Day
9h 54m
Full, 99% of the Moon is Illuminated
Nov 11
Full
Nov 18
Last Quarter
Nov 25
New
Dec 2
First Quarter
Dec 10
Full

Hourly Weather History & Observations

Time (EST) Temp. Windchill Dew Point Humidity Pressure Visibility Wind Dir Wind Speed Gust Speed Precip Events Conditions
12:53 AM 34.0 °F 31.0 °F 30.9 °F 89% 29.94 in 10.0 mi NW 3.5 mph - N/A   Overcast
1:53 AM 34.0 °F 28.8 °F 30.9 °F 89% 29.94 in 10.0 mi West 5.8 mph - N/A   Overcast
2:53 AM 34.0 °F 31.0 °F 32.0 °F 92% 29.94 in 10.0 mi SW 3.5 mph - 0.00 in   Overcast
3:53 AM 34.0 °F 29.8 °F 32.0 °F 92% 29.94 in 9.0 mi WSW 4.6 mph - N/A   Overcast
4:53 AM 35.1 °F 29.3 °F 32.0 °F 89% 29.95 in 10.0 mi SW 6.9 mph - N/A   Overcast
5:53 AM 35.1 °F 30.1 °F 32.0 °F 89% 29.96 in 10.0 mi WSW 5.8 mph - N/A   Overcast
6:53 AM 35.1 °F 32.2 °F 32.0 °F 89% 29.96 in 10.0 mi WSW 3.5 mph - N/A   Overcast
7:53 AM 35.1 °F 32.2 °F 32.0 °F 89% 29.97 in 10.0 mi WSW 3.5 mph - N/A   Overcast
8:53 AM 37.4 °F - 32.0 °F 81% 29.94 in 10.0 mi Calm Calm - N/A   Overcast
9:53 AM 39.2 °F 34.2 °F 30.2 °F 70% 29.95 in 10.0 mi WSW 6.9 mph - N/A   Mostly Cloudy
10:53 AM 39.2 °F 33.6 °F 30.2 °F 70% 29.96 in 10.0 mi West 8.1 mph - N/A   Overcast
11:53 AM 42.1 °F 34.9 °F 28.9 °F 60% 29.97 in 10.0 mi WSW 13.8 mph - N/A   Mostly Cloudy
12:53 PM 42.1 °F 33.9 °F 28.9 °F 60% 29.95 in 10.0 mi WSW 17.3 mph 25.3 mph N/A   Overcast
1:53 PM 41.0 °F 33.9 °F 28.9 °F 62% 29.93 in 10.0 mi WSW 12.7 mph - N/A   Mostly Cloudy
2:53 PM 41.0 °F 33.5 °F 28.0 °F 60% 29.91 in 10.0 mi WSW 13.8 mph 23.0 mph N/A   Mostly Cloudy
3:53 PM 41.0 °F 35.8 °F 30.0 °F 65% 29.91 in 10.0 mi SW 8.1 mph - N/A   Mostly Cloudy
4:53 PM 41.0 °F 35.2 °F 28.0 °F 60% 29.90 in 10.0 mi SW 9.2 mph - N/A   Scattered Clouds
5:53 PM 35.6 °F 29.2 °F 26.6 °F 70% 29.85 in 10.0 mi South 8.1 mph - N/A   Scattered Clouds
6:53 PM 35.1 °F 27.4 °F 27.0 °F 72% 29.85 in 10.0 mi South 10.4 mph - N/A   Scattered Clouds
7:53 PM 34.0 °F 28.0 °F 27.0 °F 75% 29.85 in 10.0 mi South 6.9 mph - N/A   Partly Cloudy
8:53 PM 36.0 °F 29.0 °F 27.0 °F 70% 29.85 in 10.0 mi South 9.2 mph - N/A   Partly Cloudy
9:53 PM 35.1 °F 27.9 °F 28.0 °F 76% 29.83 in 10.0 mi South 9.2 mph - N/A   Partly Cloudy
10:53 PM 36.0 °F 29.0 °F 28.0 °F 73% 29.81 in 10.0 mi South 9.2 mph - N/A   Partly Cloudy
11:53 PM 35.1 °F 30.1 °F 27.0 °F 72% 29.80 in 10.0 mi SSW 5.8 mph - N/A   Partly Cloudy